sat.trackr.live / text

‹ back to catalog

STARLINK-36413

NORAD 67338 · 2026-003E

PAYLOAD ACTIVE UNKNOWN

§ Identity

Operator
Country
US
Launch date
2026-01-09
Launch site
AFETR
Launch vehicle
Mass (kg)
RCS (m²)

Purposes: comms

External: N2YO · Heavens-Above · Gunter

§ Orbital elements

Epoch: 2026-09-19T06:04:55.056864Z

Period
94.27 min
Inclination
43.0015°
Eccentricity
0.0001261
Mean motion
15.27585406 rev/d
Perigee alt
482.2 km
Apogee alt
483.9 km
Semi-major
6,861.2 km
B*
4.0253e-4
RAAN
214.2156°
Arg perigee
284.7550°
Mean anomaly
75.3162°
Rev number
3,842

§ Raw data

STARLINK-364131 67338U 26003E   26262.25341501  .00010833  00000+0  40253-3 0  99982 67338  43.0015 214.2156 0001261 284.7550  75.3162 15.27585406 38428

JSON: /api/v1/satellites/67338 · /tle

For live sub-satellite position, see the globe view (requires WebGL).

§ Visibility from observer

Set your observer location to see the next 7 days of passes ≥ 10°. The values pass through the URL so the page stays shareable.

No JS? Fill the form by hand. The geolocation button needs JavaScript.